Location: Piotrkow Trybunalski
(51.4000°N, 19.6830°E)
Time: 05:33:53
(UTC+02:00)

STRAND 1 - Pass Details

Date: 03 March 2024
Orbit: 764 x 779 km, 98.4° (Epoch: 24 April)

Event Time Altitude Azimuth Distance (km) Brightness Sun altitude
Rises 03:15:30 0° 108° (ESE) 3,261 ? -29.0°
Reaches altitude 10° 03:18:42 10° 87° (E) 2,337 ? -28.5°
Maximum altitude 03:21:38 16° 52° (NE) 1,980 ? -28.1°
Drops below altitude 10° 03:24:34 10° 17° (NNE) 2,343 ? -27.7°
Sets 03:27:47 0° 356° (N) 3,273 ? -27.3°
